{"data":{"norad_id":59133,"epoch":"2026-09-22T20:59:22.765920Z","epoch_age_seconds":52748,"freshness":"FRESH","line1":"1 59133U 24043AM  26265.87456905  .00012121  00000+0  25225-3 0  9994","line2":"2 59133  97.5728  54.8170 0006821 217.1788 142.8989 15.45754666142611","mean_motion":15.45754666,"eccentricity":0.0006821,"inclination_deg":97.5728,"raan_deg":54.817,"arg_perigee_deg":217.1788,"mean_anomaly_deg":142.8989,"bstar":0.00025225,"rev_number":14261,"period_min":93.158379636423,"perigee_km":424.51827934229,"apogee_km":433.80479600738,"semimajor_km":6807.2985376748,"source":"CELESTRAK","updated_at":"2026-09-23T09:00:19.181243Z"}}